This is the latest recevied weather packets stored in our database for station/object KQ4PPF. If no packets are shown the sender has not sent any weather packets the latest 10 day(s).
| Time | Temp. | Humidity | Pressure | Rain* | Wind** | Luminosity | Snow |
|---|---|---|---|---|---|---|---|
| 1788614567 | 28.33° C | 84% | 1014.9 hPa | 0 mm | - | 266 W/m² | - |
| 1788614262 | 28.89° C | 85% | 1014.9 hPa | 0 mm | - | 278 W/m² | - |
| 1788613957 | 27.78° C | 88% | 1014.8 hPa | 0 mm | - | 228 W/m² | - |
| 1788613651 | 27.22° C | 88% | 1014.9 hPa | 0 mm | - | 67 W/m² | - |
| 1788613351 | 26.67° C | 89% | 1014.9 hPa | 0 mm | - | 62 W/m² | - |
| 1788613046 | 26.67° C | 91% | 1015 hPa | 0 mm | - | 47 W/m² | - |
| 1788612741 | 26.11° C | 93% | 1015 hPa | 0 mm | - | 37 W/m² | - |
| 1788612438 | 25.56° C | 94% | 1014.8 hPa | 0 mm | - | 49 W/m² | - |
| 1788612134 | 25° C | 97% | 1014.6 hPa | 0 mm | - | 33 W/m² | - |
| 1788611828 | 25° C | 98% | 1014.7 hPa | 0 mm | - | 53 W/m² | - |
| 1788611525 | 24.44° C | 99% | 1014.9 hPa | 0 mm | - | 26 W/m² | - |
| 1788611224 | 24.44° C | 99% | 1014.7 hPa | 0 mm | - | 31 W/m² | - |
| 1788610919 | 24.44° C | 99% | 1014.5 hPa | 0 mm | - | 23 W/m² | - |
| 1788610614 | 23.89° C | 99% | 1014.8 hPa | 0 mm | - | 20 W/m² | - |
| 1788610310 | 23.89° C | 99% | 1014.6 hPa | 0 mm | - | 18 W/m² | - |
| 1788610009 | 23.89° C | 99% | 1014.6 hPa | 0 mm | - | 16 W/m² | - |
| 1788609704 | 23.89° C | 99% | 1014.6 hPa | 0 mm | - | 14 W/m² | - |
| 1788609403 | 23.89° C | 99% | 1014.2 hPa | 0 mm | - | 11 W/m² | - |
| 1788609093 | 23.33° C | 99% | 1014.5 hPa | 0 mm | - | 10 W/m² | - |
| 1788608793 | 23.33° C | 99% | 1014.6 hPa | 0 mm | - | 8 W/m² | - |
| 1788608491 | 23.33° C | 99% | 1014.5 hPa | 0 mm | - | 6 W/m² | - |
| 1788608186 | 23.33° C | 99% | 1014.2 hPa | 0 mm | - | 4 W/m² | - |
| 1788607882 | 23.33° C | 99% | 1014.2 hPa | 0 mm | - | 3 W/m² | - |
| 1788607581 | 23.33° C | 99% | 1014.2 hPa | 0 mm | - | 1 W/m² | - |
| 1788607278 | 23.33° C | 99% | 1014 hPa | 0 mm | - | 0 W/m² | - |
* Rain latest hour (hover to see other rain measurements)
** Current wind speed in m/s (hover to see current wind gust speed)